Вернуться в каталог

USA 225

АктивенВоенныеPO
NORAD 37364·PAYLOAD·🇺🇸 United States

Запущен Feb 6, 2011 с Vandenberg Space Force Base

Loading…

Ближайшие Пролёты (ближайшие 24 часа)

TLE

УстаревшееSource: Mike McCants

Эпоха: Aug 20, 2025, 19:20 UTC

1 37364U 11006A   25232.80603145 0.00000000  00000-0  00000-0 0    05
2 37364  90.1712  83.7188 0023068 253.5147 106.4813 13.11855100    04

Отслеживайте USA 225 в реальном времени с AllMySat

Download on the App Store